Wetterdaten für den Flughafen Lübeck Blankensee


ADDS - METARS form results Aviation Digital Data Service (ADDS) Output produced by METARs form (0238 UTC 21 September 2019)
found at http://www.aviationweather.gov/metar/data/
 
TAF EDHL 201700Z 2018/2021 25004KT 9999 BKN030

Nord: Hamburg, Lübeck
Ost: Schwerin, Rostock
Süd: Hannover
West: Bremen, Nordhloz

 

Copyright © 2016 Flugschule Hohensee